Time,TemperatureF,DewpointF,PressureIn,WindDirection,WindDirectionDegrees,WindSpeedMPH,WindSpeedGustMPH,Humidity,HourlyPrecipIn,Conditions,Clouds,dailyrainin,SolarRadiationWatts/m^2,SoftwareType,DateUTC
2013-09-12 00:06:00,68.6,68.0,29.97,South,174,0.0,0.0,98,0.00,,,0.00,0,weatherlink.com 1.10,2013-09-12 04:06:00,
2013-09-12 00:21:00,68.4,68.0,29.97,South,174,0.0,0.0,98,0.00,,,0.00,0,weatherlink.com 1.10,2013-09-12 04:21:00,
2013-09-12 00:36:00,68.2,68.0,29.96,South,174,0.0,0.0,98,0.00,,,0.00,0,weatherlink.com 1.10,2013-09-12 04:36:00,
2013-09-12 00:51:00,68.3,68.0,29.96,South,174,0.0,0.0,98,0.00,,,0.00,0,weatherlink.com 1.10,2013-09-12 04:51:00,
2013-09-12 01:06:00,68.0,68.0,29.96,South,174,0.0,0.0,98,0.00,,,0.00,0,weatherlink.com 1.10,2013-09-12 05:06:00,
2013-09-12 01:21:00,68.2,68.0,29.95,South,174,0.0,0.0,98,0.00,,,0.00,0,weatherlink.com 1.10,2013-09-12 05:21:00,
2013-09-12 01:36:00,68.1,68.0,29.95,South,174,0.0,0.0,98,0.00,,,0.00,0,weatherlink.com 1.10,2013-09-12 05:36:00,
2013-09-12 01:51:00,68.0,68.0,29.94,South,174,0.0,0.0,98,0.00,,,0.00,0,weatherlink.com 1.10,2013-09-12 05:51:00,
2013-09-12 02:07:00,67.8,68.0,29.93,South,174,0.0,0.0,99,0.00,,,0.00,0,weatherlink.com 1.10,2013-09-12 06:07:00,
2013-09-12 02:22:00,67.7,67.0,29.93,South,174,0.0,0.0,98,0.00,,,0.00,0,weatherlink.com 1.10,2013-09-12 06:22:00,
2013-09-12 02:37:00,67.8,68.0,29.92,South,174,0.0,0.0,99,0.00,,,0.00,0,weatherlink.com 1.10,2013-09-12 06:37:00,
2013-09-12 02:52:00,67.8,68.0,29.92,South,174,0.0,0.0,99,0.00,,,0.00,0,weatherlink.com 1.10,2013-09-12 06:52:00,
2013-09-12 03:07:00,67.8,68.0,29.92,South,174,0.0,1.0,99,0.00,,,0.00,0,weatherlink.com 1.10,2013-09-12 07:07:00,
2013-09-12 03:22:00,67.9,68.0,29.92,South,174,0.0,1.0,99,0.00,,,0.00,0,weatherlink.com 1.10,2013-09-12 07:22:00,
2013-09-12 03:37:00,67.8,68.0,29.92,South,174,0.0,0.0,99,0.00,,,0.00,0,weatherlink.com 1.10,2013-09-12 07:37:00,
2013-09-12 03:52:00,67.6,67.0,29.93,South,174,0.0,0.0,98,0.00,,,0.00,0,weatherlink.com 1.10,2013-09-12 07:52:00,
2013-09-12 04:07:00,67.8,68.0,29.93,South,174,0.0,0.0,99,0.00,,,0.00,0,weatherlink.com 1.10,2013-09-12 08:07:00,
2013-09-12 04:22:00,67.8,68.0,29.92,South,174,0.0,0.0,99,0.00,,,0.00,0,weatherlink.com 1.10,2013-09-12 08:22:00,
2013-09-12 04:37:00,67.8,68.0,29.92,South,174,0.0,0.0,99,0.00,,,0.00,0,weatherlink.com 1.10,2013-09-12 08:37:00,
2013-09-12 04:52:00,67.7,67.0,29.92,South,174,0.0,0.0,98,0.00,,,0.00,0,weatherlink.com 1.10,2013-09-12 08:52:00,
2013-09-12 05:07:00,67.6,67.0,29.91,South,174,0.0,0.0,99,0.00,,,0.00,0,weatherlink.com 1.10,2013-09-12 09:07:00,
2013-09-12 05:22:00,67.7,67.0,29.91,South,174,0.0,0.0,99,0.00,,,0.00,0,weatherlink.com 1.10,2013-09-12 09:22:00,
2013-09-12 05:37:00,67.6,67.0,29.91,West,275,0.0,1.0,99,0.00,,,0.00,0,weatherlink.com 1.10,2013-09-12 09:37:00,
2013-09-12 05:52:00,67.6,67.0,29.90,NNW,333,0.0,2.0,99,0.00,,,0.00,0,weatherlink.com 1.10,2013-09-12 09:52:00,
2013-09-12 06:07:00,67.7,67.0,29.90,North,355,0.0,1.0,99,0.00,,,0.00,0,weatherlink.com 1.10,2013-09-12 10:07:00,
2013-09-12 06:22:00,67.7,67.0,29.90,North,355,1.0,1.0,99,0.00,,,0.00,0,weatherlink.com 1.10,2013-09-12 10:22:00,
2013-09-12 06:37:00,67.7,67.0,29.90,North,355,0.0,1.0,99,0.00,,,0.00,0,weatherlink.com 1.10,2013-09-12 10:37:00,
2013-09-12 06:52:00,67.8,68.0,29.90,North,355,0.0,0.0,99,0.00,,,0.00,5,weatherlink.com 1.10,2013-09-12 10:52:00,
2013-09-12 07:07:00,67.9,68.0,29.91,North,355,0.0,0.0,99,0.00,,,0.00,9,weatherlink.com 1.10,2013-09-12 11:07:00,
2013-09-12 07:22:00,68.0,68.0,29.90,North,355,0.0,0.0,99,0.00,,,0.00,40,weatherlink.com 1.10,2013-09-12 11:22:00,
2013-09-12 07:37:00,68.1,68.0,29.91,North,355,0.0,1.0,98,0.00,,,0.00,32,weatherlink.com 1.10,2013-09-12 11:37:00,
2013-09-12 07:52:00,68.3,68.0,29.90,North,355,0.0,0.0,98,0.00,,,0.00,47,weatherlink.com 1.10,2013-09-12 11:52:00,
2013-09-12 08:07:00,68.5,68.0,29.90,North,355,0.0,0.0,99,0.00,,,0.00,51,weatherlink.com 1.10,2013-09-12 12:07:00,
2013-09-12 08:22:00,69.0,69.0,29.89,North,355,0.0,0.0,98,0.00,,,0.00,88,weatherlink.com 1.10,2013-09-12 12:22:00,
2013-09-12 08:37:00,69.5,69.0,29.88,North,355,0.0,1.0,98,0.00,,,0.00,98,weatherlink.com 1.10,2013-09-12 12:37:00,
2013-09-12 08:52:00,70.1,69.0,29.87,NNW,346,0.0,2.0,97,0.00,,,0.00,83,weatherlink.com 1.10,2013-09-12 12:52:00,
2013-09-12 09:07:00,70.9,70.0,29.87,NNW,331,0.0,1.0,97,0.00,,,0.00,199,weatherlink.com 1.10,2013-09-12 13:07:00,
2013-09-12 09:22:00,71.6,70.0,29.86,SSW,193,1.0,3.0,94,0.00,,,0.00,127,weatherlink.com 1.10,2013-09-12 13:22:00,
2013-09-12 09:37:00,72.0,70.0,29.86,North,360,0.0,2.0,93,0.00,,,0.00,113,weatherlink.com 1.10,2013-09-12 13:37:00,
2013-09-12 10:07:00,73.2,71.0,29.85,WNW,286,0.0,3.0,91,0.00,,,0.00,146,weatherlink.com 1.10,2013-09-12 14:07:00,
2013-09-12 10:22:00,74.0,71.0,29.84,WNW,296,0.0,2.0,89,0.00,,,0.00,251,weatherlink.com 1.10,2013-09-12 14:22:00,
2013-09-12 10:37:00,74.9,71.0,29.84,ESE,123,0.0,3.0,88,0.00,,,0.00,167,weatherlink.com 1.10,2013-09-12 14:37:00,
2013-09-12 10:52:00,75.0,72.0,29.83,NW,311,0.0,3.0,89,0.00,,,0.00,134,weatherlink.com 1.10,2013-09-12 14:52:00,
2013-09-12 11:08:00,75.3,72.0,29.83,SW,221,1.0,6.0,88,0.00,,,0.00,144,weatherlink.com 1.10,2013-09-12 15:08:00,
2013-09-12 11:23:00,76.1,72.0,29.82,NNW,328,0.0,4.0,88,0.00,,,0.00,146,weatherlink.com 1.10,2013-09-12 15:23:00,
2013-09-12 11:38:00,76.4,72.0,29.81,West,277,1.0,5.0,87,0.00,,,0.00,236,weatherlink.com 1.10,2013-09-12 15:38:00,
2013-09-12 11:53:00,77.1,73.0,29.81,WSW,252,2.0,6.0,87,0.00,,,0.00,204,weatherlink.com 1.10,2013-09-12 15:53:00,
2013-09-12 12:08:00,78.3,74.0,29.80,WNW,292,7.0,8.0,85,0.00,,,0.00,288,weatherlink.com 1.10,2013-09-12 16:08:00,
2013-09-12 12:23:00,78.8,73.0,29.80,NNE,25,0.0,2.0,83,0.00,,,0.00,241,weatherlink.com 1.10,2013-09-12 16:23:00,
2013-09-12 12:38:00,79.3,73.0,29.79,NNW,345,1.0,3.0,82,0.00,,,0.00,244,weatherlink.com 1.10,2013-09-12 16:38:00,
2013-09-12 12:53:00,81.0,75.0,29.79,North,349,0.0,4.0,81,0.00,,,0.00,686,weatherlink.com 1.10,2013-09-12 16:53:00,
2013-09-12 13:08:00,82.2,74.0,29.78,West,275,0.0,4.0,77,0.00,,,0.00,717,weatherlink.com 1.10,2013-09-12 17:08:00,
2013-09-12 13:23:00,82.8,75.0,29.76,SW,236,1.0,7.0,77,0.00,,,0.00,765,weatherlink.com 1.10,2013-09-12 17:23:00,
2013-09-12 13:38:00,83.5,75.0,29.76,North,355,1.0,6.0,75,0.00,,,0.00,675,weatherlink.com 1.10,2013-09-12 17:38:00,
2013-09-12 13:53:00,83.5,75.0,29.76,North,360,1.0,9.0,75,0.00,,,0.00,473,weatherlink.com 1.10,2013-09-12 17:53:00,
2013-09-12 14:08:00,83.7,76.0,29.74,NNW,336,0.0,5.0,77,0.00,,,0.00,737,weatherlink.com 1.10,2013-09-12 18:08:00,
2013-09-12 14:23:00,84.1,77.0,29.73,NNW,348,1.0,4.0,78,0.00,,,0.00,738,weatherlink.com 1.10,2013-09-12 18:23:00,
2013-09-12 14:38:00,81.9,75.0,29.73,NNW,344,2.0,5.0,79,0.00,,,0.00,160,weatherlink.com 1.10,2013-09-12 18:38:00,
2013-09-12 14:53:00,82.3,76.0,29.73,NNW,346,5.0,5.0,81,0.00,,,0.00,796,weatherlink.com 1.10,2013-09-12 18:53:00,
2013-09-12 15:08:00,79.7,74.0,29.72,SSE,152,1.0,5.0,83,0.00,,,0.00,47,weatherlink.com 1.10,2013-09-12 19:08:00,
2013-09-12 15:23:00,77.9,74.0,29.73,SSE,155,1.0,2.0,88,0.00,,,0.00,47,weatherlink.com 1.10,2013-09-12 19:23:00,
2013-09-12 15:38:00,75.7,73.0,29.72,ENE,65,0.0,3.0,90,0.02,,,0.02,137,weatherlink.com 1.10,2013-09-12 19:38:00,
2013-09-12 15:53:00,76.7,75.0,29.73,ENE,67,0.0,1.0,93,0.02,,,0.02,142,weatherlink.com 1.10,2013-09-12 19:53:00,
2013-09-12 16:08:00,76.0,73.0,29.71,ENE,67,0.0,1.0,90,0.02,,,0.02,206,weatherlink.com 1.10,2013-09-12 20:08:00,
2013-09-12 16:23:00,75.8,74.0,29.70,ENE,67,0.0,0.0,93,0.01,,,0.02,12,weatherlink.com 1.10,2013-09-12 20:23:00,
2013-09-12 16:38:00,74.8,73.0,29.70,ENE,67,0.0,0.0,93,0.00,,,0.02,18,weatherlink.com 1.10,2013-09-12 20:38:00,
2013-09-12 16:54:00,74.6,73.0,29.70,ENE,67,0.0,0.0,94,0.00,,,0.02,49,weatherlink.com 1.10,2013-09-12 20:54:00,
2013-09-12 17:08:00,74.1,72.0,29.70,ENE,67,0.0,1.0,94,0.00,,,0.02,19,weatherlink.com 1.10,2013-09-12 21:08:00,
2013-09-12 17:23:00,73.4,72.0,29.71,ENE,67,0.0,1.0,95,0.02,,,0.04,5,weatherlink.com 1.10,2013-09-12 21:23:00,
2013-09-12 17:38:00,72.4,71.0,29.70,NNW,347,0.0,3.0,95,0.22,,,0.24,16,weatherlink.com 1.10,2013-09-12 21:38:00,
2013-09-12 17:53:00,71.6,70.0,29.69,North,360,0.0,1.0,96,0.28,,,0.30,7,weatherlink.com 1.10,2013-09-12 21:53:00,
2013-09-12 18:08:00,71.1,70.0,29.71,North,360,0.0,1.0,96,0.32,,,0.34,0,weatherlink.com 1.10,2013-09-12 22:08:00,
2013-09-12 18:23:00,71.2,70.0,29.72,North,360,0.0,0.0,97,0.32,,,0.37,0,weatherlink.com 1.10,2013-09-12 22:23:00,
2013-09-12 18:38:00,71.1,70.0,29.71,North,360,0.0,1.0,97,0.13,,,0.37,0,weatherlink.com 1.10,2013-09-12 22:38:00,
2013-09-12 18:54:00,70.6,70.0,29.71,North,360,0.0,1.0,96,0.08,,,0.38,0,weatherlink.com 1.10,2013-09-12 22:54:00,
2013-09-12 19:09:00,69.6,69.0,29.73,South,173,0.0,3.0,96,0.08,,,0.42,0,weatherlink.com 1.10,2013-09-12 23:09:00,
2013-09-12 19:24:00,68.6,68.0,29.72,SSE,165,0.0,1.0,96,0.15,,,0.52,0,weatherlink.com 1.10,2013-09-12 23:24:00,
2013-09-12 19:39:00,68.7,68.0,29.71,SSE,165,0.0,0.0,97,0.15,,,0.52,0,weatherlink.com 1.10,2013-09-12 23:39:00,
2013-09-12 19:54:00,68.3,68.0,29.70,SSE,165,0.0,0.0,97,0.17,,,0.55,0,weatherlink.com 1.10,2013-09-12 23:54:00,
2013-09-12 20:09:00,67.9,67.0,29.71,SSE,165,0.0,0.0,97,0.13,,,0.56,0,weatherlink.com 1.10,2013-09-13 00:09:00,
2013-09-12 20:24:00,68.1,67.0,29.72,SSE,165,0.0,0.0,97,0.05,,,0.57,0,weatherlink.com 1.10,2013-09-13 00:24:00,
2013-09-12 20:39:00,68.0,68.0,29.73,SSE,165,0.0,0.0,98,0.06,,,0.58,0,weatherlink.com 1.10,2013-09-13 00:39:00,
2013-09-12 20:54:00,67.8,67.0,29.73,SSE,165,0.0,0.0,98,0.03,,,0.58,0,weatherlink.com 1.10,2013-09-13 00:54:00,
2013-09-12 21:09:00,67.6,67.0,29.73,SSE,165,0.0,0.0,98,0.04,,,0.60,0,weatherlink.com 1.10,2013-09-13 01:09:00,
2013-09-12 21:24:00,67.6,67.0,29.72,SSE,165,0.0,0.0,98,0.03,,,0.60,0,weatherlink.com 1.10,2013-09-13 01:24:00,
2013-09-12 21:39:00,67.7,67.0,29.71,SSE,165,0.0,0.0,98,0.02,,,0.60,0,weatherlink.com 1.10,2013-09-13 01:39:00,
2013-09-12 21:54:00,67.7,67.0,29.71,SSE,165,0.0,0.0,98,0.01,,,0.60,0,weatherlink.com 1.10,2013-09-13 01:54:00,
2013-09-12 22:09:00,67.7,67.0,29.71,SSE,165,0.0,0.0,98,0.00,,,0.60,0,weatherlink.com 1.10,2013-09-13 02:09:00,
2013-09-12 22:24:00,67.6,67.0,29.71,SSE,165,0.0,0.0,98,0.00,,,0.60,0,weatherlink.com 1.10,2013-09-13 02:24:00,
2013-09-12 22:39:00,67.5,67.0,29.70,SSE,165,0.0,0.0,98,0.00,,,0.60,0,weatherlink.com 1.10,2013-09-13 02:39:00,
2013-09-12 22:54:00,67.3,67.0,29.70,SSE,165,0.0,0.0,98,0.00,,,0.60,0,weatherlink.com 1.10,2013-09-13 02:54:00,
2013-09-12 23:24:00,67.2,67.0,29.70,SSE,165,0.0,0.0,98,0.00,,,0.60,0,weatherlink.com 1.10,2013-09-13 03:24:00,
2013-09-12 23:39:00,67.2,67.0,29.70,SSE,165,0.0,0.0,98,0.00,,,0.60,0,weatherlink.com 1.10,2013-09-13 03:39:00,
2013-09-12 23:54:00,67.1,67.0,29.70,SSE,165,0.0,0.0,98,0.01,,,0.61,0,weatherlink.com 1.10,2013-09-13 03:54:00,